Date_and_time,latitude,longitude,wind_speed,RelWindDirFrom,WindDirFrom,air_pressure,air_temperature,relative_humidity,Temp,platform_speed_wrt_ground,air_pressure_at_mean_sea_level,platform_orientation
2019-09-05 23:40,50.630455,-96.9807883333333,10.5,12.1,17,989.81,16.4,100,17.25,0.0,1016.13,0.0
2019-09-05 23:50,50.6304533333333,-96.9807866666667,10.9,12.2,18,989.83,16.4,100,17.25,0.0,1016.15,0.0
2019-09-06 00:00,50.6304533333333,-96.9807833333333,11.6,13.2,17,989.74,16.3,100,17.25,0.0,1016.07,299.2
2019-09-06 00:10,50.6304533333333,-96.9807833333333,10.3,11.8,20,989.70,16.2,100,17.24,0.0,1016.02,299.2
2019-09-06 00:20,50.6304533333333,-96.9807833333333,9.1,10.4,20,989.69,16.2,100,17.23,0.0,1016.00,299.2
2019-09-06 00:30,50.6304533333333,-96.9807833333333,8.7,10.0,25,989.64,16.2,100,17.24,0.0,1015.96,299.2
2019-09-06 00:40,50.6304583333333,-96.9807883333333,7.8,9.1,24,989.75,16.2,100,17.25,0.0,1016.07,299.2
2019-09-06 00:50,50.6304566666667,-96.98078,7.0,8.2,20,989.94,16.2,100,17.26,0.0,1016.26,299.2
2019-09-06 01:00,50.6304583333333,-96.98078,6.0,7.3,11,990.09,16.1,100,17.27,0.0,1016.42,360.0
2019-09-06 01:10,50.630455,-96.980795,6.7,7.5,32,989.98,16.1,100,17.28,0.0,1016.32,360.0
2019-09-06 01:20,50.630465,-96.9807616666667,5.9,7.3,32,990.01,16.1,100,17.29,0.0,1016.35,360.0
2019-09-06 01:30,50.6304433333333,-96.9807683333333,5.8,6.9,37,990.00,16.1,100,17.30,0.0,1016.33,360.0
2019-09-06 01:40,50.630455,-96.980765,5.2,5.8,34,990.06,16.1,100,17.30,0.0,1016.40,360.0
2019-09-06 01:50,50.6304566666667,-96.9807683333333,4.1,5.1,38,990.19,16.1,100,17.28,0.0,1016.54,360.0
2019-09-06 02:00,50.630455,-96.9807666666667,4.2,5.1,39,990.25,16.1,100,17.30,0.0,1016.60,90.0
2019-09-06 02:10,50.6304833333333,-96.9807933333333,4.6,5.5,27,990.31,16.1,100,17.30,0.0,1016.67,90.0
2019-09-06 02:20,50.63046,-96.98078,4.1,5.3,32,990.32,16.1,100,17.29,0.0,1016.67,90.0
2019-09-06 02:30,50.63046,-96.98078,3.9,5.2,53,990.30,16.2,100,17.28,0.0,1016.66,90.0
2019-09-06 02:40,50.6304583333333,-96.98078,4.3,5.2,64,990.11,16.2,100,17.27,0.0,1016.46,90.0
2019-09-06 02:50,50.6304583333333,-96.9807783333333,4.8,5.6,73,990.00,16.3,100,17.27,0.0,1016.34,90.0
2019-09-06 03:00,50.6304583333333,-96.9807783333333,3.3,4.9,79,990.05,16.3,100,17.27,0.0,1016.39,360.0
2019-09-06 03:10,50.63046,-96.9807766666667,2.2,3.2,97,990.10,16.4,100,17.28,0.0,1016.44,360.0
2019-09-06 03:20,50.63046,-96.9807766666667,2.2,3.0,112,990.14,16.4,100,17.29,0.0,1016.48,360.0
2019-09-06 03:30,50.6304583333333,-96.980775,2.5,3.7,123,990.12,16.3,100,17.31,0.0,1016.46,360.0
2019-09-06 03:40,50.6304583333333,-96.980775,2.1,2.7,145,990.17,15.8,100,17.31,0.0,1016.54,360.0
2019-09-06 03:50,50.630425,-96.9807733333333,2.2,3.4,210,990.21,15.7,100,17.31,0.0,1016.58,360.0
2019-09-06 04:00,50.6304583333333,-96.9807766666667,1.8,2.6,233,990.21,15.4,100,17.31,0.0,1016.60,90.0
2019-09-06 04:10,50.6304566666667,-96.9807766666667,2.6,3.3,206,990.06,15.1,100,17.31,0.0,1016.46,90.0
2019-09-06 04:20,50.6304566666667,-96.98078,2.2,3.1,205,989.96,14.9,100,17.33,0.0,1016.36,90.0
2019-09-06 04:30,50.630455,-96.9807816666667,2.3,3.4,196,989.89,15.0,100,17.34,0.0,1016.29,90.0
2019-09-06 04:40,50.630455,-96.9807833333333,3.5,4.7,197,989.84,15.0,100,17.36,0.0,1016.23,90.0
2019-09-06 04:50,50.6304583333333,-96.9808333333333,4.6,5.6,192,989.80,15.0,100,17.39,0.0,1016.18,90.0
2019-09-06 05:00,50.6304566666667,-96.98079,2.9,4.4,197,989.86,15.0,100,17.45,0.0,1016.24,270.0
2019-09-06 05:10,50.63044,-96.9807666666667,1.9,3.2,192,989.91,15.0,100,17.47,0.0,1016.30,270.0
2019-09-06 05:20,50.6304516666667,-96.9807566666667,0.6,4.2,311,989.97,15.2,100,17.51,0.0,1016.35,270.0
2019-09-06 05:30,50.6304516666667,-96.98078,3.4,5.4,296,990.23,15.3,100,17.53,0.0,1016.64,270.0
2019-09-06 05:40,50.630455,-96.98078,4.2,5.2,220,990.18,15.0,100,17.55,0.0,1016.60,270.0
2019-09-06 05:50,50.630455,-96.9807783333333,3.2,4.4,247,990.20,15.0,100,17.56,0.0,1016.65,270.0
2019-09-06 06:00,50.630455,-96.980775,4.5,6.3,211,990.14,14.9,100,17.57,0.0,1016.60,125.3
2019-09-06 06:10,50.63046,-96.9807583333333,6.3,7.8,203,990.06,15.0,100,17.56,0.0,1016.52,125.3
2019-09-06 06:20,50.6304633333333,-96.9807666666667,5.6,7.6,213,990.10,15.1,100,17.56,0.0,1016.56,125.3
2019-09-06 06:30,50.6304616666667,-96.98077,5.2,7.5,218,990.18,15.0,100,17.56,0.0,1016.64,125.3
2019-09-06 06:40,50.6304616666667,-96.9807733333333,5.2,6.9,215,990.22,14.8,100,17.57,0.0,1016.68,125.3
2019-09-06 06:50,50.63046,-96.9807716666667,4.7,6.5,216,990.17,14.8,100,17.59,0.0,1016.63,125.3
2019-09-06 07:00,50.63046,-96.9807733333333,5.4,7.1,221,990.22,14.7,100,17.58,0.0,1016.69,0.0
2019-09-06 07:10,50.6304566666667,-96.9807833333333,5.8,8.0,229,990.31,14.7,101,17.57,0.0,1016.78,0.0
2019-09-06 07:20,50.6304533333333,-96.9807783333333,5.8,8.1,223,990.32,14.6,101,17.57,0.0,1016.79,0.0
2019-09-06 07:30,50.6304666666667,-96.98076,5.4,8.2,223,990.25,14.6,101,17.56,0.0,1016.73,0.0
2019-09-06 07:40,50.6304916666667,-96.9808116666667,4.4,6.4,233,990.21,14.6,101,17.54,0.0,1016.68,0.0
2019-09-06 07:50,50.6304566666667,-96.9807816666667,4.5,7.4,238,990.20,14.6,101,17.55,0.0,1016.68,0.0
2019-09-06 08:00,50.6304583333333,-96.9807816666667,5.6,8.3,236,990.22,14.5,101,17.55,0.0,1016.70,12.6
2019-09-06 08:10,50.630455,-96.9807816666667,5.1,7.9,251,990.30,14.6,101,17.54,0.0,1016.78,12.6
2019-09-06 08:20,50.630455,-96.9807816666667,5.7,9.1,265,990.27,14.7,101,17.52,0.0,1016.75,12.6
2019-09-06 08:30,50.6304566666667,-96.98078,5.7,9.5,266,990.38,15.0,100,17.53,0.0,1016.85,12.6
2019-09-06 08:40,50.630455,-96.9807766666667,6.2,9.5,281,990.45,15.2,100,17.54,0.0,1016.91,12.6
2019-09-06 08:50,50.630455,-96.9807766666667,6.4,10.2,288,990.51,15.2,100,17.53,0.0,1016.98,12.6
2019-09-06 09:00,50.6304533333333,-96.980775,6.7,10.6,290,990.47,15.1,100,17.52,0.0,1016.95,0.0
2019-09-06 09:10,50.6304533333333,-96.9807733333333,5.7,9.6,284,990.56,15.0,100,17.50,0.0,1017.05,0.0
2019-09-06 09:20,50.6304516666667,-96.9807733333333,5.3,8.0,288,990.66,15.0,100,17.49,0.0,1017.15,0.0
2019-09-06 09:30,50.6304516666667,-96.9807733333333,5.9,9.4,295,990.61,14.9,100,17.47,0.0,1017.10,0.0
2019-09-06 09:40,50.6304516666667,-96.980775,6.2,10.3,302,990.56,14.9,100,17.47,0.0,1017.05,0.0
2019-09-06 09:50,50.63047,-96.9807816666667,6.2,9.0,298,990.57,14.8,100,17.49,0.0,1017.07,0.0
2019-09-06 10:00,50.6304516666667,-96.9807883333333,5.8,10.3,292,990.68,14.7,100,17.48,0.0,1017.18,248.5
2019-09-06 10:10,50.63045,-96.9807816666667,6.6,10.0,293,990.71,14.5,100,17.47,0.0,1017.21,248.5
2019-09-06 10:20,50.6304483333333,-96.9807766666667,6.9,10.4,290,990.78,14.3,100,17.47,0.0,1017.28,248.5
2019-09-06 10:30,50.6304483333333,-96.980775,6.4,9.9,286,990.88,14.1,100,17.47,0.0,1017.39,248.5
2019-09-06 10:40,50.6304533333333,-96.9807666666667,5.3,8.5,281,991.00,14.0,100,17.47,0.0,1017.52,248.5
2019-09-06 10:50,50.630455,-96.9807666666667,5.4,8.7,281,991.12,13.8,100,17.47,0.0,1017.65,248.5
2019-09-06 11:00,50.6304533333333,-96.9807683333333,5.6,8.7,282,991.23,13.6,100,17.46,0.0,1017.78,113.6
2019-09-06 11:10,50.6304516666667,-96.9807683333333,5.4,8.1,285,991.32,13.5,100,17.46,0.0,1017.88,113.6
2019-09-06 11:20,50.6304533333333,-96.9807716666667,4.6,7.7,279,991.46,13.4,100,17.46,0.0,1018.03,113.6
2019-09-06 11:30,50.6304516666667,-96.9807733333333,4.7,7.9,272,991.56,13.2,100,17.44,0.0,1018.14,113.6
2019-09-06 11:40,50.6304516666667,-96.9807733333333,4.6,6.9,276,991.56,13.1,100,17.43,0.0,1018.15,113.6
2019-09-06 11:50,50.63046,-96.9807783333333,4.6,6.9,280,991.63,13.0,100,17.42,0.0,1018.24,113.6
2019-09-06 12:00,50.6304566666667,-96.9807833333333,4.3,7.4,278,991.73,12.9,100,17.40,0.0,1018.35,270.0
2019-09-06 12:10,50.630455,-96.9807816666667,5.0,7.6,280,991.83,12.9,100,17.38,0.0,1018.46,270.0
2019-09-06 12:20,50.6304566666667,-96.98078,5.6,8.3,283,991.96,13.1,100,17.37,0.0,1018.59,270.0
2019-09-06 12:30,50.6304583333333,-96.98078,6.0,10.0,283,992.07,13.2,100,17.37,0.0,1018.70,270.0
2019-09-06 12:40,50.6304583333333,-96.98078,6.3,10.5,294,992.02,13.4,100,17.36,0.0,1018.66,270.0
2019-09-06 12:50,50.630445,-96.9807816666667,6.9,9.8,300,991.94,13.7,99,17.35,0.0,1018.57,270.0
2019-09-06 13:00,50.630435,-96.9807866666667,6.1,9.4,298,992.04,13.8,99,17.34,0.0,1018.67,360.0
2019-09-06 13:10,50.630445,-96.9807783333333,5.6,9.0,294,992.17,13.9,99,17.33,0.0,1018.80,360.0
2019-09-06 13:20,50.630445,-96.9807833333333,6.0,10.1,281,992.24,14.0,99,17.32,0.0,1018.88,360.0
2019-09-06 13:30,50.6304483333333,-96.98078,5.6,8.9,282,992.30,14.1,99,17.32,0.0,1018.95,360.0
2019-09-06 13:40,50.6304483333333,-96.98078,5.3,9.5,288,992.28,14.2,97,17.32,0.0,1018.93,360.0
2019-09-06 13:50,50.6304483333333,-96.9807783333333,5.5,8.4,282,992.32,14.4,94,17.29,0.0,1018.96,360.0
2019-09-06 14:00,50.6304483333333,-96.9807783333333,5.2,8.5,283,992.36,14.6,91,17.27,0.0,1018.99,248.5
2019-09-06 14:10,50.6304483333333,-96.9807783333333,5.6,9.7,275,992.41,15.0,86,17.24,0.0,1019.02,248.5
2019-09-06 14:20,50.6304433333333,-96.9807816666667,6.3,9.8,283,992.49,15.2,83,17.23,0.0,1019.08,248.5
2019-09-06 14:30,50.6304416666667,-96.9807816666667,7.1,11.6,289,992.52,15.4,79,17.22,0.0,1019.09,248.5
2019-09-06 14:40,50.630435,-96.98078,6.9,11.2,289,992.54,15.7,76,17.21,0.0,1019.09,248.5
2019-09-06 14:50,50.63044,-96.9807766666667,8.7,14.4,295,992.50,15.9,75,17.21,0.0,1019.04,248.5
2019-09-06 15:00,50.6304383333333,-96.9807716666667,10.0,17.2,300,992.45,15.9,74,17.21,0.0,1018.98,131.7
2019-09-06 15:10,50.6304416666667,-96.980775,8.0,12.6,283,992.56,16.2,73,17.22,0.0,1019.07,131.7
2019-09-06 15:20,50.63044,-96.980775,8.7,14.5,292,992.62,16.4,69,17.24,0.0,1019.12,131.7
2019-09-06 15:30,50.6304466666667,-96.9807783333333,10.4,16.6,296,992.56,16.6,65,17.25,0.0,1019.05,131.7
2019-09-06 15:40,50.63045,-96.9807833333333,9.0,14.5,291,992.62,16.8,63,17.27,0.0,1019.09,131.7
2019-09-06 15:50,50.6304516666667,-96.98078,8.7,13.9,292,992.61,17.0,62,17.28,0.0,1019.06,131.7
2019-09-06 16:00,50.6304516666667,-96.9807816666667,8.8,13.9,307,992.65,17.0,61,17.31,0.0,1019.08,360.0
2019-09-06 16:10,50.630455,-96.9807816666667,9.3,15.2,305,992.65,17.3,60,17.33,0.0,1019.06,360.0
2019-09-06 16:20,50.6304533333333,-96.98078,9.9,15.4,304,992.59,17.5,60,17.35,0.0,1018.98,360.0
2019-09-06 16:30,50.6304133333333,-96.9807966666667,10.3,15.8,300,992.51,17.6,59,17.37,0.0,1018.88,360.0
2019-09-06 16:40,50.6304316666667,-96.9807916666667,9.5,14.9,303,992.52,17.8,57,17.39,0.0,1018.87,360.0
2019-09-06 16:50,50.630445,-96.9807816666667,9.2,16.0,285,992.55,18.0,55,17.43,0.0,1018.89,360.0
2019-09-06 17:00,50.63045,-96.9807916666667,9.2,15.2,295,992.47,18.2,54,17.48,0.0,1018.79,347.4
2019-09-06 17:10,50.630455,-96.9807866666667,7.3,13.5,271,992.51,18.3,55,17.52,0.0,1018.81,347.4
2019-09-06 17:20,50.6304583333333,-96.9807816666667,10.8,17.5,265,992.37,18.4,53,17.55,0.0,1018.65,347.4
2019-09-06 17:30,50.6304566666667,-96.9807733333333,9.2,18.1,290,992.16,18.7,51,17.59,0.0,1018.42,347.4
2019-09-06 17:40,50.630455,-96.9807766666667,9.9,16.5,302,992.03,18.9,51,17.66,0.0,1018.27,347.4
2019-09-06 17:50,50.6304533333333,-96.9807783333333,7.0,15.2,285,992.16,19.1,49,17.72,0.0,1018.39,347.4
2019-09-06 18:00,50.630445,-96.9807916666667,8.3,13.3,292,992.10,19.3,48,17.77,0.0,1018.30,270.0
2019-09-06 18:10,50.6304433333333,-96.9807833333333,10.2,19.2,311,991.95,19.4,44,17.80,0.0,1018.14,270.0
2019-09-06 18:20,50.6304433333333,-96.980775,8.9,15.9,300,991.97,19.5,45,17.79,0.0,1018.15,270.0
2019-09-06 18:30,50.6304516666667,-96.9807766666667,10.0,15.7,299,992.00,19.4,43,17.78,0.0,1018.18,270.0
2019-09-06 18:40,50.630455,-96.9807683333333,11.2,19.2,306,991.95,19.5,43,17.80,0.0,1018.11,270.0
2019-09-06 18:50,50.6304583333333,-96.9807733333333,8.8,15.9,296,992.01,19.7,41,17.81,0.0,1018.16,270.0
2019-09-06 19:00,50.6304616666667,-96.9807766666667,10.0,15.0,303,991.91,19.8,43,17.80,0.0,1018.04,36.6
2019-09-06 19:10,50.6304616666667,-96.9807783333333,10.2,17.8,301,991.89,20.1,41,17.80,0.0,1018.00,36.6
2019-09-06 19:20,50.6304616666667,-96.9807816666667,9.0,17.7,294,991.91,20.4,41,17.81,0.0,1017.99,36.6
2019-09-06 19:30,50.6304616666667,-96.9807833333333,10.5,16.3,305,991.79,20.1,41,17.84,0.0,1017.87,36.6
2019-09-06 19:40,50.63046,-96.9807816666667,10.9,21.0,305,991.75,20.2,41,17.85,0.0,1017.83,36.6
2019-09-06 19:50,50.63046,-96.9807816666667,9.1,18.4,299,991.86,20.3,39,17.84,0.0,1017.92,36.6
2019-09-06 20:00,50.6304616666667,-96.9807733333333,11.7,19.6,292,991.85,20.6,39,17.79,0.0,1017.90,49.4
2019-09-06 20:10,50.6304583333333,-96.98078,11.7,18.8,299,991.85,20.6,40,17.75,0.0,1017.89,49.4
2019-09-06 20:20,50.6304583333333,-96.980785,9.3,18.2,274,991.92,20.7,40,17.74,0.0,1017.96,49.4
2019-09-06 20:30,50.630455,-96.9807816666667,11.6,18.2,308,991.66,20.6,40,17.77,0.0,1017.69,49.4
2019-09-06 20:40,50.6304533333333,-96.9807783333333,10.4,20.1,310,991.71,20.7,40,17.82,0.0,1017.73,49.4
2019-09-06 20:50,50.6304533333333,-96.9807766666667,10.3,15.2,312,991.70,20.6,40,17.83,0.0,1017.72,49.4
2019-09-06 21:00,50.6304533333333,-96.9807783333333,9.7,15.5,303,991.72,20.7,40,17.84,0.0,1017.72,14.5
2019-09-06 21:10,50.630455,-96.980795,11.6,20.4,297,991.71,20.7,39,17.84,0.0,1017.70,14.5
2019-09-06 21:20,50.6304516666667,-96.980785,12.0,17.9,303,991.63,20.6,39,17.85,0.0,1017.64,14.5
2019-09-06 21:30,50.6304533333333,-96.9807866666667,10.0,17.4,295,991.64,20.8,39,17.89,0.0,1017.64,14.5
2019-09-06 21:40,50.6304516666667,-96.9807916666667,11.7,19.1,295,991.63,20.7,39,17.93,0.0,1017.62,14.5
2019-09-06 21:50,50.63045,-96.9807916666667,10.6,20.7,299,991.70,20.8,38,17.97,0.0,1017.69,14.5
2019-09-06 22:00,50.63045,-96.980785,9.0,17.0,303,991.78,21.0,39,18.01,0.0,1017.75,216.6
2019-09-06 22:10,50.63045,-96.9807833333333,11.0,16.1,313,991.75,21.0,39,18.02,0.0,1017.72,216.6
2019-09-06 22:20,50.63045,-96.9807833333333,11.4,17.4,311,991.78,20.8,39,18.03,0.0,1017.76,216.6
2019-09-06 22:30,50.630435,-96.980775,11.0,18.4,301,991.83,20.5,40,18.01,0.0,1017.83,216.6
2019-09-06 22:40,50.6304433333333,-96.9807716666667,11.9,18.0,311,991.83,20.1,40,17.98,0.0,1017.84,216.6
2019-09-06 22:50,50.6304783333333,-96.9807983333333,9.6,14.4,317,991.88,20.5,40,17.94,0.0,1017.88,216.6
2019-09-06 23:00,50.6304483333333,-96.980775,10.7,18.2,306,991.83,20.7,39,17.92,0.0,1017.81,360.0
2019-09-06 23:10,50.63045,-96.9807766666667,12.4,19.0,327,991.82,20.4,39,17.89,0.0,1017.82,360.0
2019-09-06 23:20,50.6304633333333,-96.9807783333333,10.3,16.3,323,991.94,20.3,40,17.88,0.0,1017.94,360.0
2019-09-06 23:30,50.6304566666667,-96.98078,10.2,16.3,315,991.95,20.2,40,17.89,0.0,1017.96,360.0
2019-09-06 23:40,50.6304566666667,-96.98078,11.5,18.5,308,991.91,20.0,39,17.88,0.0,1017.92,360.0
2019-09-06 23:50,50.630455,-96.9807783333333,10.9,17.8,304,992.13,19.8,39,17.86,0.0,1018.15,360.0
